This is the latest recevied weather packets stored in our database for station/object YT1XN-8. If no packets are shown the sender has not sent any weather packets the latest 10 day(s).
| Time | Temp. | Humidity | Pressure | Rain* | Wind** | Luminosity | Snow |
|---|---|---|---|---|---|---|---|
| 1777052982 | 16.11° C | 59% | 1015.4 hPa | 0 mm | - | - | - |
| 1777052445 | 16.11° C | 59% | 1015.3 hPa | 0 mm | - | - | - |
| 1777052322 | 16.67° C | 58% | 1015.2 hPa | 0 mm | - | - | - |
| 1777051662 | 16.67° C | 58% | 1015.2 hPa | 0 mm | - | - | - |
| 1777051001 | 17.22° C | 57% | 1015.2 hPa | 0 mm | - | - | - |
| 1777050341 | 17.78° C | 57% | 1015.1 hPa | 0 mm | - | - | - |
| 1777049681 | 17.78° C | 56% | 1015.2 hPa | 0 mm | - | - | - |
| 1777049021 | 18.33° C | 56% | 1015 hPa | 0 mm | - | - | - |
| 1777048361 | 18.89° C | 55% | 1015 hPa | 0 mm | - | - | - |
| 1777047701 | 18.89° C | 55% | 1015.2 hPa | 0 mm | - | - | - |
| 1777047041 | 19.44° C | 55% | 1015.3 hPa | 0 mm | - | - | - |
| 1777046381 | 19.44° C | 54% | 1015.3 hPa | 0 mm | - | - | - |
| 1777045721 | 20° C | 53% | 1015.3 hPa | 0 mm | - | - | - |
| 1777045061 | 19.44° C | 53% | 1015.4 hPa | 0 mm | - | - | - |
| 1777044645 | 20° C | 52% | 1015.3 hPa | 0 mm | - | - | - |
| 1777044401 | 20° C | 53% | 1015.4 hPa | 0 mm | - | - | - |
| 1777044045 | 20.56° C | 51% | 1015.5 hPa | 0 mm | - | - | - |
| 1777043741 | 20.56° C | 51% | 1015.4 hPa | 0 mm | - | - | - |
| 1777043081 | 20.56° C | 51% | 1015.5 hPa | 0 mm | - | - | - |
| 1777042421 | 21.11° C | 49% | 1015.6 hPa | 0 mm | - | - | - |
| 1777041761 | 21.11° C | 48% | 1015.6 hPa | 0 mm | - | - | - |
| 1777041101 | 22.22° C | 47% | 1015.5 hPa | 0 mm | - | - | - |
| 1777041045 | 22.22° C | 46% | 1015.5 hPa | 0 mm | - | - | - |
| 1777040441 | 22.78° C | 47% | 1015.5 hPa | 0 mm | - | - | - |
| 1777039781 | 23.33° C | 46% | 1015.5 hPa | 0 mm | - | - | - |
* Rain latest hour (hover to see other rain measurements)
** Current wind speed in m/s (hover to see current wind gust speed)